Regional Weather Roundup
Issued by NWS

Home | Current Version | Previous Version | Graphics & Text | Print | Product List | Glossary Off
Versions: 1 2 3 4 5 6 7 8 9 10 11 12 13 14 15 16 17 18 19 20 21 22 23 24 25 26 27 28 29 30 31 32 33 34 35 36 37 38 39 40 41 42 43 44 45 46 47 48 49 50

000
ASUS43 KMKX 030310
RWRWI

WISCONSIN REGIONAL WEATHER ROUNDUP
NATIONAL WEATHER SERVICE MILWAUKEE/SULLIVAN WI
900 PM CST MON MAR 02 2015

NOTE: "FAIR" INDICATES FEW OR NO CLOUDS BELOW 12,000 FEET WITH NO
SIGNIFICANT WEATHER AND/OR OBSTRUCTIONS TO VISIBILITY.

WIZ001-002-006>008-014>016-023>028-030400-
NORTHWEST WISCONSIN

CITY           SKY/WX    TMP DP  RH WIND       PRES   REMARKS
SUPERIOR ARPT  CLOUDY    22   7  51 S10       30.11F WCI  11
ASHLAND        PTCLDY    17   0  47 S6        30.15F WCI   9
HAYWARD        CLOUDY    20   5  52 S7        30.14F WCI  11
SIREN          MOCLDY    22   6  51 S12       30.13F WCI  10
CUMBERLAND     CLOUDY    21   9  58 S6        30.13F WCI  14
RICE LAKE      CLOUDY    22   7  52 S7        30.18R WCI  14
CHETEK         CLOUDY    22   7  53 S5        30.17S WCI  16
LADYSMITH      MOCLDY    21   6  53 S6        30.17F WCI  13
EAU CLAIRE     CLOUDY    24   6  46 S9        30.17F WCI  14
MENOMONIE      CLOUDY    23   8  51 S9        30.18F WCI  13
NEW RICHMOND   CLOUDY    21   9  60 S9        30.15F WCI  11
OSCEOLA        CLOUDY    22  10  59 S13       30.16F WCI  10
$$

WIZ003>005-009-010-017-018-030400-
NORTH CENTRAL WISCONSIN

CITY           SKY/WX    TMP DP  RH WIND       PRES   REMARKS
MANITOWISH WTR PTCLDY    15   0  53 S5        30.13S WCI   7
ARBOR VITAE    PTCLDY    17   2  53 CALM      30.13F
WOODRUFF       PTCLDY    17   2  53 CALM      30.13F
RHINELANDER    PTCLDY    17   2  51 S3        30.15F
EAGLE RIVER    PTCLDY    16   1  53 CALM      30.13F
LAND O LAKES   PTCLDY    15   3  59 SW3       30.14S
PHILLIPS       MOCLDY    16   4  58 S5        30.14S WCI   9
TOMAHAWK       MOCLDY    14   2  59 CALM      30.16S
MEDFORD        MOCLDY    18   6  60 S6        30.16S WCI  10
MERRILL        MOCLDY    17   4  57 CALM      30.17F
$$

WIZ029-030-035-036-043>047-030400-
CENTRAL WISCONSIN

CITY           SKY/WX    TMP DP  RH WIND       PRES   REMARKS
WAUSAU         MOCLDY    21   5  50 S6        30.17F WCI  13
MOSINEE        CLEAR     19   9  63 S5        30.19  WCI  13
MARSHFIELD     CLOUDY    24   7  48 S9        30.18F WCI  14
STEVENS POINT  CLOUDY    22   9  55 S9        30.21F WCI  12
WAUPACA        CLOUDY    27  12  54 S7        30.25F WCI  19
WAUTOMA        CLOUDY    25  11  55 S8        30.25F WCI  16
WISC RAPIDS    CLOUDY    24   5  44 S7        30.22F WCI  16
CAMP DOUGLAS   CLOUDY    25  11  55 S9        30.21F WCI  16
$$

WIZ011>013-019>022-031-037>040-048>050-030400-
NORTHEAST WISCONSIN

CITY           SKY/WX    TMP DP  RH WIND       PRES   REMARKS
ANTIGO         MOCLDY    15   4  62 S3        30.17S
SHAWANO        MOCLDY    24  11  58 S3        30.24F
OCONTO         MOCLDY    20  11  68 S3        30.26F
STURGEON BAY   MOCLDY    21  12  68 S7        30.28F WCI  13
GREEN BAY      CLOUDY    23  14  68 S6        30.26F WCI  16
MANITOWOC      CLOUDY    25  18  74 SW8       30.28F WCI  16
APPLETON       MOCLDY    23  10  58 SW7       30.26F WCI  15
CLINTONVILLE   CLOUDY    25  14  63 S8        30.24F WCI  16
OSHKOSH        CLOUDY    24  13  62 S9        30.26F WCI  14
$$

WIZ032>034-041-042-053>061-030400-
SOUTHWEST WISCONSIN

CITY           SKY/WX    TMP DP  RH WIND       PRES   REMARKS
LA CROSSE      CLOUDY    26  13  57 S10       30.21F WCI  16
SPARTA         CLOUDY    25  14  61 S10       30.22F WCI  15
VIROQUA        CLOUDY    23  15  70 S9        30.18F WCI  13
BOSCOBEL       CLOUDY    25  14  63 CALM      30.25F
PRAIRIE DU CHI CLOUDY    26  15  63 E5        30.24F WCI  20
PLATTEVILLE    CLOUDY    24  18  75 SE6       30.23F WCI  17
$$

WIZ056-057-062-063-064-067-068-030400-
SOUTH CENTRAL WISCONSIN

CITY           SKY/WX    TMP DP  RH WIND       PRES   REMARKS
REEDSBURG      CLOUDY    24  13  64 S8        30.24F WCI  15
BARABOO/DELLS  CLOUDY    24  11  59 S8        30.24F WCI  15
LONE ROCK      CLOUDY    24  15  68 S6        30.26F WCI  17
MINERAL POINT  CLOUDY    27  18  69 SE7       30.23F WCI  19
MADISON        CLOUDY    25  13  60 S7        30.28F WCI  17
MIDDLETON      CLOUDY    26  15  63 S7        30.27F WCI  18
WATERTOWN      CLOUDY    24  15  68 S6        30.29S WCI  17
MONROE         CLOUDY    25  19  80 S9        30.25F WCI  15
JANESVILLE     CLOUDY    27  18  69 S5        30.29F WCI  21
$$

WIZ051-052-058>065-066-070>072-030400-
SOUTHEAST WISCONSIN

CITY           SKY/WX    TMP DP  RH WIND       PRES   REMARKS
MILWAUKEE      CLOUDY    25  15  66 S6        30.31F WCI  18
WAUKESHA       CLOUDY    23  14  68 S6        30.31R WCI  16
MILWAUKEE/TIMM CLOUDY    27  16  63 S7        30.31S WCI  19
RACINE         CLOUDY    27  19  72 S7        30.32F WCI  19
BURLINGTON     MOCLDY    23  14  69 S3        30.30F
KENOSHA        CLOUDY    26  19  74 S7        30.31F WCI  18
FOND DU LAC    CLOUDY    25  11  55 S8        30.27F WCI  16
SHEBOYGAN      CLOUDY    25  16  68 S7        30.27F WCI  17
WEST BEND      CLOUDY    27  10  50 S8        30.28S WCI  18
JUNEAU         CLOUDY    24  12  61 S10       30.29S WCI  13
$$

LSZ147-162-030400-
LAKE SUPERIOR

STATION/POSITION TIME  TEMP    WIND        PRES    WAVE
                       AIR SEA DIR/SP/G            HT/PER
                 (UTC) (F)     (DEG/KT/KT) (MB)    (FT/S)
DEVILS ISLAND    0300   22     210/  8/  8 1021.6F
PORT WING        0200   22     180/  5/ 16 1021.0F
SAXON HARBOR     0200   24      CALM  /  6 1021.7F
$$

LMZ867-665-643>646-030400-
LAKE MICHIGAN

STATION/POSITION TIME  TEMP    WIND        PRES    WAVE
                       AIR SEA DIR/SP/G            HT/PER
                 (UTC) (F)     (DEG/KT/KT) (MB)    (FT/S)
NORTHPORT PIER   0201   21     180/  1/  7 1025.4F
SISTER BAY       0213   20     160/  6/  8   N/A
KEWAUNEE LAKESHO 0200   25     210/  9/ 13 1025.2F
SHEBOYGAN LAKESH 0300   27     190/ 16/ 17 1026.8F
PORT WASHINGTON  0240   27     200/  8/ 13 1026.8F
MILWAUKEE LAKESH 0200   26     200/  9/ 10   N/A
KENOSHA   LAKESH 0300   27     200/  7/ 12 1026.4F
$$

TC  - TEMPERATURE IN CELSIUS
VSB - VISIBILITY IN STATUTE MILES
WCI - WIND CHILL INDEX
HX  - HEAT INDEX



USA.gov is the U.S. government's official web portal to all federal, state and local government web resources and services.